Location: *
(23.5860°S, 65.4036°W)
Time: 22:56:41
(UTC+00:00)

Mugunghwa Rocket - Pass Details

Date: 25 August 2019
Orbit: 936 x 1372 km, 26.7° (Epoch: 15 September)

Event Time Altitude Azimuth Distance (km) Brightness Sun altitude
Rises 22:53:30 0° 271° (W) 3,627 9.1 -11.0°
Reaches altitude 10° 22:56:04 10° 268° (W) 2,713 7.8 -11.6°
Maximum altitude 23:02:37 70° 185° (S) 1,090 4.2 -13.1°
Enters shadow 23:08:00 19° 103° (ESE) 2,349 5.4 -14.3°
